No.3 Daieimaru — JD3430 — position and weather

sailwx.info

Track history (hours):
 
Tides and Currents Weather Stations Pressure Air Temp Water Temp Dewpoint Dewpoint Depression Visibility Wind Speed Wind Dir Waves Ship Positions

No.3 Daieimaru

Last reported at 2017-Dec-11 17:00 UTC. Time now 2017-Dec-13 12:46 UTC.
Position N 34°57' E 136°45'.

Length 90 m; draft 5 m.

Type: Tanker. MMSI: 431004049.

Date/timePositionNaut miles runAvg speedWind from/ knotsBaromVisibWave heightAir tempDewpointWater temp
2017-Dec-11 17:00N 34°57' E 136°45'0 0.0
2017-Dec-11 16:30N 34°57' E 136°45'0 0.0
2017-Dec-11 16:00N 34°57' E 136°45'0 0.0
2017-Dec-11 15:31N 34°57' E 136°45'0 0.0
2017-Dec-11 15:01N 34°57' E 136°45'0 0.0
2017-Dec-11 14:30N 34°57' E 136°45'0 0.0
2017-Dec-11 14:00N 34°57' E 136°45'0 0.0
2017-Dec-11 13:31N 34°57' E 136°45'0 0.0
2017-Dec-11 13:01N 34°57' E 136°45'0 0.0
2017-Dec-11 12:31N 34°57' E 136°45'0 0.0
2017-Dec-11 12:00N 34°57' E 136°45'0 0.0
2017-Dec-11 11:30N 34°57' E 136°45'0 0.0
2017-Dec-11 11:00N 34°57' E 136°45'0 0.0
2017-Dec-11 10:30N 34°57' E 136°45'0 0.0
2017-Dec-11 10:01N 34°57' E 136°45'0 0.0
2017-Dec-11 09:31N 34°57' E 136°45'1 3.0
2017-Dec-11 09:01N 34°56' E 136°47'712.5
2017-Dec-11 08:29N 34°49' E 136°47'612.4
2017-Dec-11 08:00N 34°44' E 136°49'103 8.6
2017-Dec-10 19:56N 33°46' E 135°05'614.2
2017-Dec-10 19:31N 33°51' E 135°00'714.4
2017-Dec-10 19:01N 33°58' E 134°60'713.9
2017-Dec-10 18:30N 34°05' E 134°59'714.2
2017-Dec-10 18:00N 34°12' E 134°59'713.6
2017-Dec-10 17:30N 34°19' E 134°59'713.6
2017-Dec-10 17:00N 34°26' E 135°01'713.5
2017-Dec-10 16:30N 34°32' E 135°02'510.4
2017-Dec-10 16:00N 34°37' E 135°00'713.5
2017-Dec-10 15:30N 34°34' E 134°53'713.7
2017-Dec-10 15:00N 34°32' E 134°45'714.0
2017-Dec-10 14:29N 34°29' E 134°37'91 2.3
2017-Dec-08 22:49N 34°05' E 132°50'513.8
2017-Dec-08 22:28N 34°01' E 132°46'613.0
2017-Dec-08 22:01N 33°56' E 132°42'812.9
2017-Dec-08 21:24N 33°51' E 132°35'3613.2
2017-Dec-08 18:39N 33°27' E 132°02'412.8
2017-Dec-08 18:22N 33°24' E 131°59'511.9
2017-Dec-08 17:56N 33°19' E 131°59'4 0.1
2017-Dec-07 07:46N 33°15' E 132°01'415.6
2017-Dec-07 07:30N 33°18' E 131°58'714.6
2017-Dec-07 07:00N 33°18' E 131°49'713.4
2017-Dec-07 06:30N 33°17' E 131°41'1 1.1
2017-Dec-07 06:00N 33°17' E 131°41'0 0.0
2017-Dec-07 05:30N 33°17' E 131°41'0 0.0
2017-Dec-07 05:00N 33°17' E 131°41'0 0.0
2017-Dec-07 04:30N 33°17' E 131°41'0 0.0
2017-Dec-07 04:00N 33°17' E 131°41'0 0.0
2017-Dec-07 03:30N 33°17' E 131°41'0 0.0
2017-Dec-07 02:59N 33°17' E 131°41'1 2.4
2017-Dec-07 02:30N 33°18' E 131°41'4 8.3
2017-Dec-07 02:00N 33°22' E 131°42'0 0.0
2017-Dec-07 01:27N 33°22' E 131°42'0 0.0
2017-Dec-07 00:56N 33°22' E 131°42'0 0.0
2017-Dec-06 23:55N 33°22' E 131°42'0 0.0
2017-Dec-06 23:22N 33°22' E 131°42'0 0.1
2017-Dec-06 22:32N 33°22' E 131°42'0 4.1
2017-Dec-06 22:29N 33°22' E 131°42'713.7
2017-Dec-06 22:00N 33°22' E 131°50'914.6
2017-Dec-06 21:24N 33°19' E 132°00'1014.6
2017-Dec-06 20:43N 33°11' E 132°07'  
2017-Dec-03 22:22N 34°03' E 132°48'616.3
2017-Dec-03 22:00N 33°58' E 132°44'815.1
2017-Dec-03 21:30N 33°53' E 132°37'815.2
2017-Dec-03 20:59N 33°48' E 132°30'3014.9
2017-Dec-03 18:58N 33°28' E 132°03'715.0
2017-Dec-03 18:30N 33°23' E 131°57'813.1
2017-Dec-03 17:56N 33°16' E 132°00'913.2
2017-Dec-03 17:15N 33°08' E 132°05'612.8
2017-Dec-03 16:47N 33°03' E 132°08'  
Track history (hours):
 
Tides and Currents Weather Stations Pressure Air Temp Water Temp Dewpoint Dewpoint Depression Visibility Wind Speed Wind Dir Waves Ship Positions

No.3 Daieimaru

Last reported at 2017-Dec-11 17:00 UTC. Time now 2017-Dec-13 12:46 UTC.
Position N 34°57' E 136°45'.

Length 90 m; draft 5 m.

Type: Tanker. MMSI: 431004049.

Date/timePositionNaut miles runAvg speedWind from/ knotsBaromVisibWave heightAir tempDewpointWater temp
2017-Dec-11 17:00N 34°57' E 136°45'0 0.0
2017-Dec-11 16:30N 34°57' E 136°45'0 0.0
2017-Dec-11 16:00N 34°57' E 136°45'0 0.0
2017-Dec-11 15:31N 34°57' E 136°45'0 0.0
2017-Dec-11 15:01N 34°57' E 136°45'0 0.0
2017-Dec-11 14:30N 34°57' E 136°45'0 0.0
2017-Dec-11 14:00N 34°57' E 136°45'0 0.0
2017-Dec-11 13:31N 34°57' E 136°45'0 0.0
2017-Dec-11 13:01N 34°57' E 136°45'0 0.0
2017-Dec-11 12:31N 34°57' E 136°45'0 0.0
2017-Dec-11 12:00N 34°57' E 136°45'0 0.0
2017-Dec-11 11:30N 34°57' E 136°45'0 0.0
2017-Dec-11 11:00N 34°57' E 136°45'0 0.0
2017-Dec-11 10:30N 34°57' E 136°45'0 0.0
2017-Dec-11 10:01N 34°57' E 136°45'0 0.0
2017-Dec-11 09:31N 34°57' E 136°45'1 3.0
2017-Dec-11 09:01N 34°56' E 136°47'712.5
2017-Dec-11 08:29N 34°49' E 136°47'612.4
2017-Dec-11 08:00N 34°44' E 136°49'103 8.6
2017-Dec-10 19:56N 33°46' E 135°05'614.2
2017-Dec-10 19:31N 33°51' E 135°00'714.4
2017-Dec-10 19:01N 33°58' E 134°60'713.9
2017-Dec-10 18:30N 34°05' E 134°59'714.2
2017-Dec-10 18:00N 34°12' E 134°59'713.6
2017-Dec-10 17:30N 34°19' E 134°59'713.6
2017-Dec-10 17:00N 34°26' E 135°01'713.5
2017-Dec-10 16:30N 34°32' E 135°02'510.4
2017-Dec-10 16:00N 34°37' E 135°00'713.5
2017-Dec-10 15:30N 34°34' E 134°53'713.7
2017-Dec-10 15:00N 34°32' E 134°45'714.0
2017-Dec-10 14:29N 34°29' E 134°37'91 2.3
2017-Dec-08 22:49N 34°05' E 132°50'513.8
2017-Dec-08 22:28N 34°01' E 132°46'613.0
2017-Dec-08 22:01N 33°56' E 132°42'812.9
2017-Dec-08 21:24N 33°51' E 132°35'3613.2
2017-Dec-08 18:39N 33°27' E 132°02'412.8
2017-Dec-08 18:22N 33°24' E 131°59'511.9
2017-Dec-08 17:56N 33°19' E 131°59'4 0.1
2017-Dec-07 07:46N 33°15' E 132°01'415.6
2017-Dec-07 07:30N 33°18' E 131°58'714.6
2017-Dec-07 07:00N 33°18' E 131°49'713.4
2017-Dec-07 06:30N 33°17' E 131°41'1 1.1
2017-Dec-07 06:00N 33°17' E 131°41'0 0.0
2017-Dec-07 05:30N 33°17' E 131°41'0 0.0
2017-Dec-07 05:00N 33°17' E 131°41'0 0.0
2017-Dec-07 04:30N 33°17' E 131°41'0 0.0
2017-Dec-07 04:00N 33°17' E 131°41'0 0.0
2017-Dec-07 03:30N 33°17' E 131°41'0 0.0
2017-Dec-07 02:59N 33°17' E 131°41'1 2.4
2017-Dec-07 02:30N 33°18' E 131°41'4 8.3
2017-Dec-07 02:00N 33°22' E 131°42'0 0.0
2017-Dec-07 01:27N 33°22' E 131°42'0 0.0
2017-Dec-07 00:56N 33°22' E 131°42'0 0.0
2017-Dec-06 23:55N 33°22' E 131°42'0 0.0
2017-Dec-06 23:22N 33°22' E 131°42'0 0.1
2017-Dec-06 22:32N 33°22' E 131°42'0 4.1
2017-Dec-06 22:29N 33°22' E 131°42'713.7
2017-Dec-06 22:00N 33°22' E 131°50'914.6
2017-Dec-06 21:24N 33°19' E 132°00'1014.6
2017-Dec-06 20:43N 33°11' E 132°07'  
2017-Dec-03 22:22N 34°03' E 132°48'616.3
2017-Dec-03 22:00N 33°58' E 132°44'815.1
2017-Dec-03 21:30N 33°53' E 132°37'815.2
2017-Dec-03 20:59N 33°48' E 132°30'3014.9
2017-Dec-03 18:58N 33°28' E 132°03'715.0
2017-Dec-03 18:30N 33°23' E 131°57'813.1
2017-Dec-03 17:56N 33°16' E 132°00'913.2
2017-Dec-03 17:15N 33°08' E 132°05'612.8
2017-Dec-03 16:47N 33°03' E 132°08'  

Dump ship's entire track history